www.pogodaiklimat.ru

Погода и климат >> Архив погоды >> Корея >> Кочхан


ПОГОДА в Кочхане

  • Прогноз погоды в Кочхане
  • Монитор погоды в Кочхане

АРХИВ ПОГОДЫ в Кочхане

Время (UTC), дата Ветер
(напр.,м/с)
 
Видим.   Явления Облачность Т
(С)
Тd
(С)
f
(%)
Тe
(С)
Тes
(С)
Комфортность P
(гПа)
Po
(гПа)
Тmin
(С)
Tmax
(С)
R
(мм)
R24
(мм)
S
(см)
00 12.06 С 2 16 км 5/5 300 м
[]
+19.3 +14.5 74 +21 +26 комфорт 1011.4 1005.1 +14.1 0.0
03 12.06 С 2 14 км ясно +23.6 +15.6 61 +27 +48 жарко 1010.7 1004.5
06 12.06 З 2 35 км 4/4 1000 м
[]
+23.5 +14.2 56 +26 +34 жарко 1009.2 1003.0
09 12.06 ЮЗ 2 45 км ясно +23.2 +15.2 61 +27 +30 душно 1008.8 1002.6
12 12.06 Ю 1 15 км 3/3 1500 м
[]
+17.5 +14.3 81 +19 +19 1010.1 1003.8 +26.0
15 12.06 штиль 0 27 км 5/0
[]
+16.2 +14.0 87 +16 +16 1011.2 1004.8
18 12.06 27 км 6/6 1000 м
[]
+15.3 +13.4 88 1010.6 1004.2
21 12.06 штиль 0 9000 м ясно +14.1 +13.1 94 +14 +14 1010.6 1004.2
00 13.06 З 1 21 км ясно +22.2 +16.0 68 +26 +38 душно 1010.8 1004.6 +13.8
03 13.06 ЮЗ 1 30 км ясно +26.6 +16.5 54 +30 +55 опасность
солнечного
удара
1009.1 1003.0
06 13.06 З 3 28 км 8/0
[]
+26.0 +16.8 57 +30 +35 душно 1008.0 1001.9
09 13.06 ЮЗ 5 30 км 9/1
[]
+22.2 +15.2 65 +26 +27 душно 1007.8 1001.6
12 13.06 Ю 1 13 км ?/? +19.2 +15.6 80 +22 +22 комфорт 1009.2 1003.0 +28.4
15 13.06 штиль 0 11 км 8/0
[]
+17.2 +15.0 87 +17 +17 1008.5 1002.2
18 13.06 штиль 0 12 км ?/? +17.2 +15.3 89 +17 +17 1006.5 1000.2
21 13.06 штиль 0 6000 м 10/0
[]
+16.7 +15.5 93 +17 +17 1006.3 1000.0
00 14.06 Ю 1 17 км ?/? +20.7 +16.3 76 +25 +31 комфорт 1006.0 999.8 +16.2
03 14.06 С 1 16 км 10/5 1000 м
[]
+22.8 +16.5 68 +27 +34 душно 1005.5 999.3
06 14.06 С 2 12 км ?/? +22.7 +16.2 67 +27 +27 душно 1003.7 997.6
09 14.06 В 1 8000 м 10//
[]
+22.7 +16.7 69 +27 +29 душно 1002.4 996.3
12 14.06 5000 м н/о +19.7 +17.2 85 +23 +23 комфорт 1002.8 996.6
15 14.06 Ю 2 4600 м н/о +17.4 +16.0 91 +18 +18 1003.0 996.7
18 14.06 штиль 0 2700 м 6/1
[]
+15.2 +14.5 96 +15 +15 1001.3 995.0
21 14.06 штиль 0 2700 м 5/1
[]
+14.6 +13.9 96 +14 +14 1001.9 995.6
00 15.06 З 2 27 км 8/3 1500 м
[]
+20.5 +14.8 70 +24 +28 комфорт 1002.4 996.2
03 15.06 СЗ 4 35 км 6/4 1000 м
[]
+24.1 +16.1 61 +27 +35 жарко 1001.1 995.0
06 15.06 30 км н/о +23.0 +15.5 63 +27 +33 душно 1000.5 994.4
09 15.06 СЗ 2 25 км ясно +20.2 +14.9 72 +23 +26 комфорт 1000.4 994.2
12 15.06 З 2 23 км 1/0
[]
+17.6 +13.9 79 +18 +18 1001.6 995.3
15 15.06 18 км н/о +17.7 +14.7 83 +19 +19 1003.2 996.9
18 15.06 Ю 1 18 км ясно +16.4 +14.0 86 +17 +17 1003.0 996.7
21 15.06 20 км н/о +16.7 +14.6 87 +18 +18 1004.6 998.3
00 16.06 ЮЗ 2 25 км 1/1
[]
+20.4 +15.1 72 +24 +33 комфорт 1006.2 1000.0
03 16.06 З 2 50 км 6/1 1000 м
[]
+24.1 +14.7 56 +27 +40 жарко 1006.7 1000.6
06 16.06 З 3 40 км 9/0
[]
+22.7 +15.5 64 +27 +34 душно 1007.4 1001.2
09 16.06 З 3 45 км 8/0
[]
+22.0 +15.1 65 +26 +27 душно 1007.9 1001.7
12 16.06 Ю 1 30 км 6/0
[]
+17.1 +14.7 86 +18 +18 1009.8 1003.5
15 16.06 ЮВ 1 22 км ясно +16.0 +14.8 93 +17 +17 1010.8 1004.4
18 16.06 штиль 0 17 км 8/4
[]
+15.3 +14.4 94 +15 +15 1011.4 1005.0
21 16.06 штиль 0 13 км 5/0
[]
+14.8 +14.1 96 +14 +15 1012.3 1005.9
00 17.06 З 2 30 км 8/0
[]
+19.9 +16.3 80 +23 +29 комфорт 1013.0 1006.7
03 17.06 ЮЗ 2 45 км 8/3
[]
+25.4 +15.4 54 +28 +38 жарко 1012.4 1006.2
06 17.06 З 3 50 км 8/0
[]
+26.0 +15.6 53 +29 +37 душно 1011.6 1005.5
09 17.06 З 3 45 км 3/0
[]
+24.0 +13.5 52 +26 +28 жарко 1011.1 1005.0
12 17.06 Ю 1 45 км 8/0
[]
+18.7 +14.1 75 +21 +21 комфорт 1011.9 1005.6 +27.5
15 17.06 штиль 0 40 км 9/0
[]
+17.2 +13.9 81 +17 +17 1011.9 1005.6
18 17.06 50 км ?/? +16.9 +12.6 76 1011.4 1005.1
21 17.06 ЮВ 1 45 км 9/8 300 м
[]
+18.3 +13.1 72 +20 +20 1011.3 1005.0
00 18.06 Ю 1 26 км 9/9 600 м
[]
+22.1 +16.5 71 +26 +28 душно 1011.8 1005.6 +16.6
03 18.06 ЮЗ 2 20 км 8/6 600 м
[]
+24.3 +18.0 68 +29 +35 душно 1011.2 1005.1
06 18.06 Ю 2 22 км 5/5 600 м
[]
+25.4 +18.0 64 +30 +41 душно 1009.5 1003.4
09 18.06 З 3 21 км 4/0
[]
+25.8 +17.9 62 +30 +32 душно 1007.9 1001.8
12 18.06 СЗ 1 11 км 8/0
[]
+20.5 +17.5 83 +25 +25 комфорт 1009.6 1003.3 +27.2
15 18.06 8000 м н/о +20.0 +17.9 88 +24 +24 комфорт 1009.1 1002.8
18 18.06 Ю 1 8000 м 6/6 600 м
[]
+19.2 +17.5 90 +22 +22 комфорт 1007.7 1001.5
21 18.06 штиль 0 6000 м 3/0
[]
+17.9 +16.7 93 +18 +18 1007.8 1001.5

 

Местоположение метеостанции Кочхан (Корея): широта 35.43 долгота 126.70 высота над уровнем моря 44 м.

В архиве по умолчанию представлена погода в Кочхане за последнюю неделю. Архивные данные за месяц целиком и за предыдущие месяцы, начиная с января 2011 года, Вы можете получить, выбрав интересующий диапазон дат из раскрывающегося списка и нажав кнопку "Ввод!".


*Определитесь, кто Вы:
робот инопланетянин человек

Внимание! Время в таблицах - всемирное. Для получения местного времени необходимо прибавить поправку, которая равна 9 ч.

Смотрите также архив погоды в соседних городах и на ближайших метеорологических станциях:

Погода в Чоныпе (Корея) (20 км)
Погода в Кванджу (Корея) (34 км)
Погода в Намвоне (Корея) (57 км)
Погода в Чонджу (Корея) (59 км)
Погода в Сунчхоне (Корея) (63 км)
Погода в Кунсане (Корея) (64 км)
Погода в Мокпхо (Корея) (74 км)
Погода в Порёне (Корея) (101 км)
Погода в Чинхэгу (Корея) (112 км)
Погода на Радаре Jindo (Корея) (112 км)

Пояснения к столбцам:

Ветер - указаны скорость ветра в м/с - средняя за 10 мин, порывы в срок и между сроками (в фигурных скобках) и направление, откуда дует ветер: С - северный, СВ - северо-восточный, В - восточный, ЮВ - юго-восточный, Ю - южный, ЮЗ - юго-западный, З - западный, СЗ - северо-западный.
Видимость - горизонтальная дальность видимости в метрах или километрах. При видимости от 1 до 10 км при отсутствии осадков обычно наблюдается дымка, при ухудшении видимости до 1 км и менее - туман. В сухую погоду видимость может ухудшаться дымом, пылью или мглою.
Явления - указаны атмосферные явления, наблюдавшиеся в срок или в последний час перед сроком; фигурными скобками обозначены явления, наблюдавшиеся между сроками (за 1-3 часа до срока); квадратными скобками обозначены град или гололедные отложения с указанием их диаметра в мм.
Облачность - указаны через наклонную черту общая и нижняя облачность в баллах и высота нижней границы облаков в метрах; квадратными скобками обозначены формы облаков: Ci - перистые, Cs - перисто-слоистые, Cc - перисто-кучевые, Ac - высококучевые, As - высокослоистые, Sc - слоисто-кучевые, Ns - слоисто-дождевые, Cu - кучевые, Cb - кучево-дождевые. Подробнее классификацию облаков см. в Атласе облаков (PDF).
T - Температура воздуха - температура, измеренная на высоте 2 м над землей.
Td - Температура точки росы - температура, при понижении до которой содержащийся в воздухе водяной пар достигнет насыщения.
f - Относительная влажность воздуха - влажноcть воздуха, измеренная на высоте 2 м над землей.
Te - Эффективная температура - температура, которую ощущает одетый по сезону человек в тени. Характеристика душности погоды. При расчете учитывается влияние влажности воздуха и скорости ветра на теплоощущения человека.
Tes - Эффективная температура на солнце - температура, которую ощущает человек, с поправкой на солнечный нагрев. Характеристика знойности погоды. Зависит от высоты солнца над горизонтом, облачности и скорости ветра. Ночью, в пасмурную погоду, а также при ветре 12 м/с и более поправка равна нулю.
P - Атмосферное давление - приведенное к уровню моря атмосферное давление.
Po - Атмосферное давление - измеренное на уровне метеостанции атмосферное давление.
Tmin - Минимальная температура - минимум температуры воздуха на высоте 2 м над землей.
Tmax - Максимальная температура - максимум температуры воздуха на высоте 2 м над землей.
R - Количество осадков - Количество выпавших осадков за период времени, мм. При наведении курсора мыши на число - период времени, за который выпало указанное количество осадков.
R24 - Количество осадков - Количество выпавших осадков за 24 часа, мм.
S - Снежный покров - Высота снежного покрова, см. При наведении курсора мыши на число - состояние снежного покрова и степень покрытия местности в баллах.